Regional Weather Roundup
Issued by NWS

Home | Current Version | Previous Version | Text Only | Print | Product List | Glossary Off
Versions: 1 2 3 4 5 6 7 8 9 10 11 12 13 14 15 16 17 18 19 20 21 22 23 24 25 26 27 28 29 30 31 32 33 34 35 36 37 38 39 40 41 42 43 44 45 46 47 48 49 50

000
ASUS43 KBIS 091302
RWRND

NORTH DAKOTA REGIONAL WEATHER ROUNDUP
NATIONAL WEATHER SERVICE BISMARCK ND
700 AM CST TUE FEB 09 2016

NOTE: "FAIR" INDICATES FEW OR NO CLOUDS BELOW 12,000 FEET WITH NO
SIGNIFICANT WEATHER AND/OR OBSTRUCTIONS TO VISIBILITY.


NDZ001>003-009>011-017-091400-
NORTHWEST NORTH DAKOTA

CITY           SKY/WX    TMP DP  RH WIND       PRES   REMARKS
WILLISTON      CLOUDY    27  21  78 CALM      30.19F
MINOT          CLOUDY    26   8  46 SW7       30.21S WCI  18
MINOT AFB      CLOUDY    23  12  61 CALM      30.22R
$$

NDZ018>021-031>035-040>046-091400-
SOUTHWEST NORTH DAKOTA

CITY           SKY/WX    TMP DP  RH WIND       PRES   REMARKS
BISMARCK       CLOUDY    25  13  60 W3        30.26F
DICKINSON      CLOUDY    21  16  81 S5        30.16S WCI  15
GARRISON         N/A     22  14  71 SW7       30.22F WCI  13
HETTINGER ARPT CLOUDY    27  16  63 SE5       30.20S
$$

NDZ004>008-012>016-024-026-027-054-091400-
NORTHEAST NORTH DAKOTA

CITY           SKY/WX    TMP DP  RH WIND       PRES   REMARKS
GRAND FORKS    CLOUDY    11   3  70 N14       30.29R WCI  -5
GRND FRKS AFB  CLOUDY    10   4  75 N8        30.28S WCI  -2
DEVILS LAKE    CLOUDY    14   9  80 CALM      30.24S
$$

NDZ022-023-025-028>030-036>039-047>053-091400-
SOUTHEAST NORTH DAKOTA

CITY           SKY/WX    TMP DP  RH WIND       PRES   REMARKS
FARGO          CLOUDY    10   4  76 N12       30.27R WCI  -5
JAMESTOWN      CLOUDY    15   9  76 NW7       30.24S WCI   5
$$





USA.gov is the U.S. government's official web portal to all federal, state and local government web resources and services.